Regional Weather Roundup
Issued by NWS Grand Forks, ND

Home | Current Version | Previous Version | Graphics & Text | Print | Product List | Glossary On
Versions: 1 2 3 4 5 6 7 8 9 10 11 12 13 14 15 16 17 18 19 20 21 22 23 24 25 26 27 28 29 30 31 32 33 34 35 36 37 38 39 40 41 42 43 44 45 46 47 48 49 50
000
ASUS43 KFGF 220310
RWRFGF
PRAIRIE TO PINES  WEATHER ROUNDUP
NATIONAL WEATHER SERVICE EASTERN NORTH DAKOTA/GRAND FORKS ND
1000 PM CDT THU AUG 21 2014

 **SATELLITE DATA USED TO AUGMENT SKY COVER AT AUTOMATED STATIONS**
 *****  WEATHER ACROSS EASTERN NORTH DAKOTA  *****

CITY           SKY/WX    TMP DP  RH WIND       PRES   REMARKS
GRAND FORKS    MOCLDY    70  69  97 NW3       29.86R
GRAND FRKS AFB CLOUDY    68  68 100 NW2       29.89R
GRAND FRKS NWS   N/A     61 N/A N/A NW3         N/A
DEVILS LAKE    CLEAR     68  63  83 N9        29.90S
FARGO          CLEAR     69  67  93 E3        29.85F
WAHPETON ARPT  CLEAR     72  68  88 CALM      29.87R
$$

 ***** WEATHER ACROSS CENTRAL AND WESTERN NORTH DAKOTA  *****

CITY           SKY/WX    TMP DP  RH WIND       PRES   REMARKS
BISMARCK       CLEAR     71  62  73 N3        29.96R
MINOT          MOCLDY    64  61  90 NW8       29.98R
JAMESTOWN      CLEAR     69  66  90 W3        29.90S
MINOT AFB      MOCLDY    65  64  97 N7        29.98R
GARRISON         N/A     68  64  87 N5        29.99R
WILLISTON      MOCLDY    66  57  72 N5        30.01R
DICKINSON      CLOUDY    65  60  84 NE5       29.99R
HETTINGER      MOCLDY    67  60  78 NE7       29.98R
$$

 *****  OTHER AIRPORT OBSERVATIONS IN OUR AREA  *****

CITY           SKY/WX    TMP DP  RH WIND       PRES   REMARKS
WALHALLA         N/A     70  70 100 NE5       29.91R
GRAFTON AIRPOR MOCLDY    68  68 100 N7        29.88R
VALLEY CITY AR FAIR      70  70 100 N3        29.89F
CANDO          FAIR      64  64 100 N6        29.93S
CAVALIER APRT  CLOUDY    70  66  88 NE3       29.89S
GWINNER        CLEAR     72  72 100 CALM      29.90R
SHEYENNE NWR     N/A     69  68  96 CALM      29.95S
ROLLA          CLOUDY    64  64 100 N9        29.97R
 ***** THE ABOVE OBSERVATIONS ARE NON NWS ARE NOT QUALITY
       CONTROLLED AND MAY MIS-REPORT RAIN FOR SNOW...
$$

  *****  WEATHER ACROSS NORTHERN MINNESOTA  *****

CITY           SKY/WX    TMP DP  RH WIND       PRES   REMARKS
FLAG ISLAND    CLOUDY    66  64  94 E5        29.90F
WARROAD        CLOUDY    66  63  88 E7        29.91S
ROSEAU         PTCLDY    68  63  83 E7        29.90R
HALLOCK        CLOUDY    70  66  88 CALM      29.88R
THF RVR FALLS  CLOUDY    72  66  83 S5        29.88S
BAUDETTE       CLOUDY    67  63  87 E9        29.90S
WASKISH        PTCLDY    68  64  88 CALM      29.90S
CROOKSTON      CLOUDY    72  70  94 S5        29.88R
$$
  *****  WEATHER ACROSS CENTRAL AND WEST MINNESOTA  *****

CITY           SKY/WX    TMP DP  RH WIND       PRES   REMARKS
FOSSTON        CLOUDY    66  63  88 CALM      29.89F
BEMIDJI        CLOUDY    68  65  92 CALM      29.90S
PARK RAPIDS    CLOUDY    69  66  90 E5        29.90R
ELBOW LAKE     FAIR      70  69  96 CALM      29.88R
WADENA         CLOUDY    68  66  94 CALM      29.89S FOG
DETROIT LAKES  CLOUDY    70  68  94 CALM      29.91R
MOORHEAD       CLEAR     72  72 100 CALM      29.87S
FERGUS FALLS   CLEAR     72  70  94 CALM      29.87S
MORRIS MN      CLEAR     72  70  94 CALM      29.86S
STAPLES        DRIZZLE   68  66  94 NE3       29.90R
$$
  *****  WEATHER ELSEWHERE ACROSS MINNESOTA  *****

CITY           SKY/WX    TMP DP  RH WIND       PRES   REMARKS
DULUTH         DRIZZLE   63  60  90 E8        29.92R FOG
INTRNTL FALLS  CLOUDY    65  61  87 E8        29.93R
ELY            CLOUDY    63  57  82 CALM      29.95S
CLOQUET        CLOUDY    63  61  94 E6        29.92R FOG
WHEATON        CLEAR     70  66  88 CALM      29.89R
BRAINERD       CLOUDY    66  66 100 NE5       29.89S FOG
HIBBING        CLOUDY    67  61  81 E5        29.93R
ALEXANDRIA     CLEAR     69  67  93 NE3       29.90R
SAINT CLOUD    PTCLDY    74  71  91 NE3       29.85S
MINNEAPOLIS    PTCLDY    78  74  87 N6        29.82S
$$

  *****  WEATHER ACROSS SOUTH DAKOTA  *****

CITY           SKY/WX    TMP DP  RH WIND       PRES   REMARKS
SIOUX FALLS    PTCLDY    74  69  85 N5        29.89R
BROOKINGS      NOT AVBL
WATERTOWN      CLEAR     73  68  84 CALM      29.90R
HURON          PTCLDY    72  66  81 N6        29.89R
SISSETON         N/A     71  70  96 NW5       29.86R
ABERDEEN       CLEAR     70  66  87 N6        29.89S
MITCHELL       PTCLDY    73  66  78 N6        29.89R
PIERRE         PTCLDY    67  61  81 NE9       29.89R
MOBRIDGE       CLEAR     69  64  84 NE9       29.92R
RAPID CITY     PTCLDY    65  57  75 N7        29.97R
$$

  *****  SOME WEATHER IN NEARBY STATES *****

CITY           SKY/WX    TMP DP  RH WIND       PRES   REMARKS
GLASGOW MT     LGT RAIN  61  59  93 NE12      30.04S
GREAT FALLS MT CLOUDY    56  51  84 NE15      30.14R
CHEYENNE WY    CLOUDY    68  44  42 SW10      30.18S
SCOTTSBLUFF NE MOCLDY    76  49  38 CALM      30.02S
OMAHA NE       CLOUDY    83  74  74 SE5       29.85S
DES MOINES IA  PTCLDY    83  76  79 SE5       29.87R HX  91
DAVENPORT IA   PTCLDY    75  73  93 SE5       29.90S
CHICAGO IL     CLOUDY    75  70  84 CALM      29.93R
EAU CLAIRE WI  MOCLDY    76  72  87 S6        29.85S
LA CROSSE WI   PTCLDY    77  71  82 SE8       29.87R
$$

  *****  SOME NATIONAL WEATHER *****

CITY           SKY/WX    TMP DP  RH WIND       PRES   REMARKS
LA GUARDIA NY  CLOUDY    73  64  73 S13       30.02F THUNDER
RALEIGH NC     CLOUDY    76  72  87 CALM      30.04F
ATLANTA GA     PTCLDY    77  71  82 W5        30.13S
NEW ORLEANS LA CLOUDY    79  72  79 CALM      30.11S
OKLAHOMA CITY  CLEAR     86  70  58 SE14      29.95R HX  90
ALBUQUERQUE NM MOCLDY    78  39  24 E6        30.10R
SALT LAKE CITY MOCLDY    73  47  39 S6        30.00S
LOS ANGELES CA PTCLDY    69  62  78 W12       29.92R
BOISE ID       MOCLDY    74  35  24 SW5       29.89R
SEATTLE WA     PTCLDY    68  51  54 CALM      29.98S
$$

*** WEATHER ACROSS MANITOBA...SASKATCHEWAN AND ONTARIO ***
                ***ONTARIO***

CITY           SKY/WX    TMP DP  RH WIND       PRES   REMARKS
GERALDTON      CLOUDY    66  63  88 E2        30.01S
THUNDER BAY    CLOUDY    61  59  94 SE8       29.99S FOG
SIOUX LOOKOUT  MOCLDY    61  59  94 CALM      29.97R
TORONTO        PTCLDY    68  64  88 N10       29.99R
BIG TROUT LK   CLOUDY    70  61  73 S10       29.95R
PICKLE LAKE    NOT AVBL
DRYDEN         MOCLDY    66  61  82 VRB2      29.96S
KENORA         CLOUDY    64  63  94 SE7       29.94S
$$
                *** MANITOBA***

CITY           SKY/WX    TMP DP  RH WIND       PRES   REMARKS
BRANDON        LGT RAIN  63  61  94 N7        30.00R FOG
DAUPHIN        CLOUDY    61  57  88 N8        30.03R
ISLAND LAKE    CLOUDY    68  66  94 W2        29.93
PILOT MOUND      N/A     66  64  94 N9          N/A
THE PAS        PTCLDY    61  54  77 NE5       30.06R
THOMPSON       CLOUDY    54  54 100 N7        30.05R
WINNIPEG       LGT RAIN  68  68 100 W2        29.91S
LYNN LAKE      CLEAR     52  48  87 MISG      30.13R
CHURCHILL      LGT RAIN  46  46 100 N16G24    30.03R FOG
GILLAM         LGT RAIN  50  50 100 N15       30.00R
$$
                ***SASKATCHEWAN***

CITY           SKY/WX    TMP DP  RH WIND       PRES   REMARKS
ESTEVAN        MOCLDY    61  57  88 NE5       30.03R
KINDERSLEY     MOCLDY    55  50  82 NE8       30.18R
LLOYDMINSTER   MOCLDY    52  45  76 N5        30.23R
PRINCE ALBERT  MOCLDY    54  50  87 N5        30.16R
REGINA         CLOUDY    61  54  77 NE9       30.08R
YORKTON        MOCLDY    61  54  77 NW7       30.08R
N. BATTLEFORD  CLEAR     52  46  82 NE7       30.21R
LA RONGE       PTCLDY    54  46  76 W7        30.16R
SASKATOON      MOCLDY    57  50  77 N8        30.18R
SWIFT CURRENT  CLOUDY    55  55 100 N16       30.14R
$$
NOTE: THESE ARE AUTOMATED STATIONS WITH LIMITED QUALITY CONTROL
      "FAIR" INDICATES FEW OR NO CLOUDS BELOW 12,000 FEET WITH NO
      SIGNIFICANT WEATHER AND/OR OBSTRUCTIONS TO VISIBILITY.
      SKY/WX - SKY CONDITION AND SIGNIFICANT WEATHER.
      TMP - AIR TEMPERATURE.    DP   - DEWPOINT TEMPERATURE.
      RH  - RELATIVE HUMIDITY.  PRES - PRESSURE.
      HX  - HEAT INDEX.         WCI  - WIND CHILL INDEX.
$


USA.gov is the U.S. government's official web portal to all federal, state and local government web resources and services.